Regional Weather Roundup
Issued by NWS

Home | Current Version | Previous Version | Text Only | Print | Product List | Glossary Off
Versions: 1 2 3 4 5 6 7 8 9 10 11 12 13 14 15 16 17 18 19 20 21 22 23 24 25 26 27 28 29 30 31 32 33 34 35 36 37 38 39 40 41 42 43 44 45 46 47 48 49 50

465
ASUS43 KDTX 221510
RWRMI
MICHIGAN HOURLY REGIONAL WEATHER ROUNDUP
NATIONAL WEATHER SERVICE DETROIT/PONTIAC MI
ISSUED BY NATIONAL WEATHER SERVICE GRAND RAPIDS MI
1000 AM EST WED FEB 22 2017

NOTE: "FAIR" INDICATES FEW OR NO CLOUDS BELOW 12,000 FEET WITH NO
SIGNIFICANT WEATHER AND/OR OBSTRUCTION TO VISIBILITY.

MIZ047>049-052>055-059>063-066>070-074>076-081>083-221600-
SOUTHEAST LOWER MICHIGAN

CITY           SKY/WX    TMP DP  RH WIND       PRES   REMARKS
ADRIAN         CLOUDY    53  53 100 W7        29.86F FOG
ALMA           FOG       48  47  97 SW6       29.81F VSB<1/4
ANN ARBOR      CLOUDY    52  52 100 SW10      29.84F FOG
BAD AXE        MOSUNNY   49  49 100 SW7       29.81F FOG
DETROIT CITY   SUNNY     54  51  90 SW8       29.85F FOG
DETROIT        MOSUNNY   55  52  89 SW8       29.86F FOG
FLINT          MOSUNNY   54  51  90 SW9       29.82F FOG
GROSSE ILE     FOG       42  42  99 CALM      29.85F VSB 1/4
HILLSDALE      FOG       52  52 100 S7        29.84F VSB 1/2
HOWELL         MOSUNNY   55  50  83 SW7       29.82F HAZE

CITY           SKY/WX    TMP DP  RH WIND       PRES   REMARKS
JACKSON        CLOUDY    57  52  83 SW12      29.82F
LANSING        CLOUDY    53  50  89 SW6       29.82S FOG
MASON          SUNNY     55  55  99 SW6       29.81F FOG
MONROE         CLOUDY    55  55 100 SW6G22    29.84F FOG
MT. CLEMENS    MOSUNNY   53  51  92 VRB2      29.82F FOG
PONTIAC        MOSUNNY   55  50  83 SW7       29.81F HAZE
PORT HOPE        N/A     52  49  89 SW8       29.78F
PORT HURON     PTSUNNY   54  50  87 S9        29.84F FOG
TRI CITIES     CLOUDY    50  50 100 SW7       29.81S FOG
YPSILANTI      FOG       50  50 100 SW7       29.85F VSB 1/4
$$
MIZ043>046-050>051-056>058-064>065-071>073-077>080-221600-
SOUTHWEST LOWER MICHIGAN

CITY           SKY/WX    TMP DP  RH WIND       PRES   REMARKS
BATTLE CREEK   CLOUDY    54  53  97 SW12      29.82F FOG
BENTON HARBOR  MOSUNNY   57  52  83 SW9       29.80S HAZE
BIG RAPIDS     FOG       51  51  97 S6        29.77S VSB 1/2
COLDWATER      CLOUDY    55  55 100 S6        29.83F FOG
HOLLAND        CLOUDY    54  52  93 S6        29.80S FOG
GRAND RAPIDS   CLOUDY    54  50  86 SW9       29.80S FOG
KALAMAZOO      PTSUNNY   55  51  86 S10       29.82F FOG
MARSHALL       CLOUDY    55  54  95 S9        29.81F
MOUNT PLEASANT FOG       48  47  98 S5        29.78F VSB<1/4
MUSKEGON       DRZL/FOG  51  51 100 SW13      29.79S VSB 1/8
STURGIS        CLOUDY    54  53  97 SW10      29.82F FOG
$$
MIZ016>042-221600-
NORTHERN LOWER MICHIGAN

CITY           SKY/WX    TMP DP  RH WIND       PRES   REMARKS
ALPENA         CLOUDY    48  47  96 SW8       29.75S
BEAVER ISLAND  SUNNY     51  45  78 SW12      29.67F
BELLAIRE       SUNNY     52  49  89 S3        29.72S
CADILLAC       FOG       51  50  97 SW10      29.73F VSB 3/4
CHARLEVOIX     SUNNY     50  49  94 S9        29.73S FOG
GAYLORD        FOG       47  44  90 SW8       29.73S VSB 1/4
HOUGHTON LAKE  FOG       49  48  97 S5        29.75F VSB 1/4
MANISTEE       CLOUDY    53  52  96 S10       29.72F FOG
OSCODA         FOG       47  46  97 SW8G17    29.77F VSB 1/2
PELLSTON       CLOUDY    49  41  74 SE3       29.70F
TRAVERSE CITY  CLOUDY    54  50  86 SW7       29.70F
LUDINGTON      CLOUDY    52  52 100 S12G20    29.74S FOG
$$
MIZ007>008-015-221600-
EASTERN UPPER MICHIGAN

CITY           SKY/WX    TMP DP  RH WIND       PRES   REMARKS
KINROSS        SUNNY     38  36  92 SE7       29.70F WCI  33
MACKINAC ISLAN CLOUDY    45  38  77 CALM      29.69F
NEWBERRY       FOG       37  36  96 S8        29.65F VSB 1/2 WCI  30
S. S. MARIE    CLOUDY    38  36  92 E5        29.70F FOG     WCI  34
$$
MIZ004>006-011>014-085-221600-
CENTRAL UPPER MICHIGAN

CITY           SKY/WX    TMP DP  RH WIND       PRES   REMARKS
MANISTIQUE     CLOUDY    38  37  98 S8        29.65F FOG     WCI  32
ESCANABA       PTSUNNY   40  35  83 CALM      29.65F
MENOMINEE      CLOUDY    46  39  76 SW7       29.66F
SAWYER-GWINN   SUNNY     41  37  87 SW3       29.64S
$$
MIZ001>003-009>011-084-221600-
WESTERN UPPER MICHIGAN

CITY           SKY/WX    TMP DP  RH WIND       PRES   REMARKS
IRON MOUNTAIN  MOSUNNY   43  34  70 CALM      29.62F
HOUGHTON       CLOUDY    39  33  79 NW3       29.61S
COPPER HARBOR    N/A     37  33  85 N8        29.64R WCI  31
IRONWOOD       CLOUDY    39  37  93 CALM      29.64S
$$

ABBREVIATIONS USED IN REMARKS
   TC - TEMPERATURE IN CELSIUS
  WCI - WIND CHILL INDEX
   HX - HEAT INDEX
  VSB - VISIBILITY





USA.gov is the U.S. government's official web portal to all federal, state and local government web resources and services.